Canadian, TX

10:10 AM CDT on August 26, 2016 (GMT -0500)
Hemphill County

Weather History for KHHF - January, 2012

Change the Weather History Date:

Wednesday, January 18, 2012

  Actual Average (KPPA) Record (KPPA)
Temperature  
Mean Temperature 38 °F -  
Max Temperature 59 °F 49 °F 70 °F (2015)
Min Temperature 17 °F 22 °F -2 °F (1984)
Degree Days  
Heating Degree Days 27    
Moisture  
Dew Point 18 °F    
Average Humidity 47    
Maximum Humidity 73    
Minimum Humidity 22    
Precipitation  
Precipitation 0.00 in - - ()
Sea Level Pressure  
Sea Level Pressure 30.08 in    
Wind  
Wind Speed 7 mph (SSW)    
Max Wind Speed 20 mph    
Max Gust Speed 25 mph    
Visibility 10 miles    
Events      
Averages and records for this station are not official NWS values.
T = Trace of Precipitation, MM = Missing Value Source: NWS Daily Summary

Daily Weather History Graph

Daily Weather History Graph

Search for Another Location

Airport or City:

Trip Planner

Search our weather history database for the weather conditions in past years. The results will help you decide how hot, cold, wet, or windy it might be!

Date:

Astronomy

Jan. 18, 2012 Rise Set
Actual Time 7:50 AM CST 5:53 PM CST
Civil Twilight 7:22 AM CST 6:21 PM CST
Nautical Twilight 6:51 AM CST 6:52 PM CST
Astronomical Twilight 6:20 AM CST 7:23 PM CST
Moon 3:21 AM CST (1/18) 1:35 PM CST (1/18)
Length of Visible Light 10h 58m
Length of Day
10h 03m
Waning Crescent, 24% of the Moon is Illuminated
Jan 18
Waning Crescent
Jan 23
New
Jan 30
First Quarter
Feb 7
Full
Feb 14
Last Quarter

Hourly Weather History & Observations

Time (CST) Temp. Windchill Dew Point Humidity Pressure Visibility Wind Dir Wind Speed Gust Speed Precip Events Conditions
12:15 AM 17.6 °F 10.7 °F 10.4 °F 73% 30.28 in 10.0 mi WSW 4.6 mph - N/A   Unknown
12:35 AM 17.6 °F 10.7 °F 10.4 °F 73% 30.27 in 10.0 mi WSW 4.6 mph - N/A   Clear
12:55 AM 17.6 °F 12.3 °F 10.4 °F 73% 30.27 in 10.0 mi WSW 3.5 mph - N/A   Clear
1:15 AM 17.6 °F - 10.4 °F 73% 30.27 in 10.0 mi Calm Calm - N/A   Clear
1:35 AM 19.4 °F - 10.4 °F 68% 30.26 in 10.0 mi Calm Calm - N/A   Clear
1:55 AM 19.4 °F - 10.4 °F 68% 30.26 in 10.0 mi Calm Calm - N/A   Clear
2:15 AM 21.2 °F 16.4 °F 12.2 °F 68% 30.26 in 10.0 mi SSW 3.5 mph - N/A   Clear
2:35 AM 21.2 °F - 12.2 °F 68% 30.25 in 10.0 mi Calm Calm - N/A   Clear
2:55 AM 24.8 °F 17.9 °F 12.2 °F 59% 30.25 in 10.0 mi SSW 5.8 mph - N/A   Clear
3:15 AM 26.6 °F 16.8 °F 12.2 °F 55% 30.23 in 10.0 mi SSW 10.4 mph - N/A   Clear
3:35 AM 24.8 °F 16.1 °F 12.2 °F 59% 30.21 in 10.0 mi SSW 8.1 mph - N/A   Clear
3:55 AM 26.6 °F 19.1 °F 12.2 °F 55% 30.19 in 10.0 mi SSW 6.9 mph - N/A   Clear
4:15 AM 26.6 °F 16.8 °F 12.2 °F 55% 30.18 in 10.0 mi SSW 10.4 mph - N/A   Clear
4:35 AM 26.6 °F 21.2 °F 12.2 °F 55% 30.19 in 10.0 mi SSW 4.6 mph - N/A   Clear
4:55 AM 26.6 °F 18.2 °F 14.0 °F 59% 30.18 in 10.0 mi SSW 8.1 mph - N/A   Clear
5:15 AM 26.6 °F 18.2 °F 14.0 °F 59% 30.17 in 10.0 mi SSW 8.1 mph - N/A   Clear
5:35 AM 26.6 °F 18.2 °F 14.0 °F 59% 30.18 in 10.0 mi SSW 8.1 mph - N/A   Clear
5:55 AM 26.6 °F 19.1 °F 14.0 °F 59% 30.18 in 10.0 mi South 6.9 mph - N/A   Clear
6:15 AM 26.6 °F 16.8 °F 14.0 °F 59% 30.15 in 10.0 mi South 10.4 mph - N/A   Clear
6:35 AM 26.6 °F 20.0 °F 14.0 °F 59% 30.16 in 10.0 mi South 5.8 mph - N/A   Clear
6:55 AM 26.6 °F 18.2 °F 14.0 °F 59% 30.16 in 10.0 mi SSW 8.1 mph - N/A   Clear
7:15 AM 26.6 °F 20.0 °F 14.0 °F 59% 30.16 in 10.0 mi SW 5.8 mph - N/A   Clear
7:35 AM 26.6 °F 19.1 °F 14.0 °F 59% 30.15 in 10.0 mi SSW 6.9 mph - N/A   Clear
7:55 AM 28.4 °F 21.2 °F 15.8 °F 59% 30.16 in 10.0 mi SW 6.9 mph - N/A   Clear
8:15 AM 28.4 °F 20.4 °F 15.8 °F 59% 30.16 in 10.0 mi SW 8.1 mph - N/A   Clear
8:35 AM 30.2 °F 21.9 °F 15.8 °F 55% 30.15 in 10.0 mi SSW 9.2 mph - N/A   Clear
8:55 AM 30.2 °F 23.4 °F 17.6 °F 60% 30.16 in 10.0 mi SW 6.9 mph - N/A   Clear
9:35 AM 32.0 °F 22.5 °F 17.6 °F 55% 30.14 in 10.0 mi SW 12.7 mph 25.3 mph N/A   Clear
9:55 AM 33.8 °F 23.2 °F 17.6 °F 52% 30.12 in 10.0 mi SW 17.3 mph - N/A   Clear
10:15 AM 35.6 °F 27.1 °F 17.6 °F 48% 30.12 in 10.0 mi SW 12.7 mph - N/A   Clear
10:35 AM 37.4 °F 30.3 °F 17.6 °F 45% 30.13 in 10.0 mi SW 10.4 mph - N/A   Clear
10:55 AM 39.2 °F 31.2 °F 19.4 °F 45% 30.12 in 10.0 mi SW 13.8 mph - N/A   Clear
11:15 AM 41.0 °F 34.7 °F 19.4 °F 42% 30.11 in 10.0 mi WSW 10.4 mph - N/A   Clear
11:35 AM 44.6 °F 39.2 °F 21.2 °F 39% 30.09 in 10.0 mi WSW 10.4 mph - N/A   Clear
11:55 AM 46.4 °F 40.7 °F 21.2 °F 37% 30.07 in 10.0 mi West 12.7 mph - N/A   Clear
12:15 PM 48.2 °F - 23.0 °F 37% 30.06 in 10.0 mi West 6.9 mph - N/A   Clear
12:35 PM 50.0 °F - 23.0 °F 35% 30.04 in 10.0 mi WSW 11.5 mph - N/A   Clear
12:55 PM 50.0 °F - 23.0 °F 35% 30.03 in 10.0 mi West 9.2 mph - N/A   Clear
1:15 PM 51.8 °F - 23.0 °F 33% 30.02 in 10.0 mi West 6.9 mph - N/A   Clear
1:35 PM 51.8 °F - 23.0 °F 33% 29.99 in 10.0 mi WSW 5.8 mph - N/A   Clear
1:55 PM 53.6 °F - 23.0 °F 30% 29.98 in 10.0 mi WSW 4.6 mph - N/A   Clear
2:15 PM 55.4 °F - 23.0 °F 29% 29.97 in 10.0 mi WSW 5.8 mph - N/A   Clear
2:35 PM 55.4 °F - 23.0 °F 29% 29.96 in 10.0 mi SW 4.6 mph - N/A   Clear
2:55 PM 57.2 °F - 21.2 °F 25% 29.95 in 10.0 mi West 6.9 mph - N/A   Clear
3:15 PM 59.0 °F - 21.2 °F 23% 29.94 in 10.0 mi WSW 5.8 mph - N/A   Clear
3:35 PM 59.0 °F - 21.2 °F 23% 29.92 in 10.0 mi South 3.5 mph - N/A   Clear
3:55 PM 59.0 °F - 19.4 °F 22% 29.91 in 10.0 mi Calm Calm - N/A   Clear
4:15 PM 59.0 °F - 19.4 °F 22% 29.91 in 10.0 mi SW 3.5 mph - N/A   Clear
4:35 PM 57.2 °F - 19.4 °F 23% 29.91 in 10.0 mi SSW 4.6 mph - N/A   Clear
4:55 PM 55.4 °F - 21.2 °F 26% 29.91 in 10.0 mi South 3.5 mph - N/A   Clear
5:15 PM 55.4 °F - 21.2 °F 26% 29.91 in 10.0 mi South 3.5 mph - N/A   Clear
5:35 PM 53.6 °F - 23.0 °F 30% 29.91 in 10.0 mi SSE 6.9 mph - N/A   Clear
5:55 PM 51.8 °F - 23.0 °F 33% 29.90 in 10.0 mi SSE 6.9 mph - N/A   Clear
6:15 PM 51.8 °F - 24.8 °F 35% 29.90 in 10.0 mi SSE 12.7 mph - N/A   Clear
6:35 PM 50.0 °F - 24.8 °F 37% 29.90 in 10.0 mi SSE 15.0 mph - N/A   Clear
6:55 PM 50.0 °F - 24.8 °F 37% 29.90 in 10.0 mi South 16.1 mph - N/A   Clear
7:15 PM 48.2 °F - 23.0 °F 37% 29.89 in 10.0 mi South 16.1 mph - N/A   Clear
7:35 PM 48.2 °F - 23.0 °F 37% 29.88 in 10.0 mi South 13.8 mph 19.6 mph N/A   Clear
7:55 PM 46.4 °F 39.5 °F 23.0 °F 40% 29.88 in 10.0 mi South 17.3 mph - N/A   Clear
8:15 PM 46.4 °F 39.0 °F 24.8 °F 43% 29.85 in 10.0 mi SSE 19.6 mph - N/A   Clear
8:35 PM 46.4 °F 39.2 °F 24.8 °F 43% 29.85 in 10.0 mi South 18.4 mph 23.0 mph N/A   Clear
8:55 PM 44.6 °F 37.2 °F 24.8 °F 46% 29.85 in 10.0 mi South 17.3 mph 26.5 mph N/A   Clear
9:15 PM 44.6 °F 37.2 °F 24.8 °F 46% 29.84 in 10.0 mi South 17.3 mph 24.2 mph N/A   Clear
9:35 PM 42.8 °F 38.6 °F 24.8 °F 49% 29.84 in 10.0 mi WSW 6.9 mph - N/A   Clear
9:55 PM 42.8 °F 39.3 °F 26.6 °F 53% 29.84 in 10.0 mi WSW 5.8 mph - N/A   Clear
10:15 PM 41.0 °F 35.2 °F 26.6 °F 57% 29.83 in 10.0 mi WSW 9.2 mph - N/A   Clear
10:35 PM 41.0 °F 34.7 °F 26.6 °F 57% 29.82 in 10.0 mi WSW 10.4 mph - N/A   Clear
10:55 PM 42.8 °F 36.2 °F 26.6 °F 53% 29.82 in 10.0 mi WSW 12.7 mph - N/A   Clear
11:15 PM 42.8 °F 36.6 °F 26.6 °F 53% 29.81 in 10.0 mi SW 11.5 mph - N/A   Clear
11:35 PM 42.8 °F 35.8 °F 26.6 °F 53% 29.79 in 10.0 mi SW 13.8 mph - N/A   Clear
11:55 PM 41.0 °F 34.3 °F 26.6 °F 57% 29.79 in 10.0 mi SW 11.5 mph - N/A   Clear